Regional Weather Roundup
Issued by NWS Charleston, SC

Current Version | Previous Version | Graphics & Text | Print | Product List | Glossary On
Versions: 1 2 3 4 5 6 7 8 9 10 11 12 13 14 15 16 17 18 19 20 21 22 23 24 25 26 27 28 29 30 31 32 33 34 35 36 37 38 39 40 41 42 43 44 45 46 47 48 49 50
000 ASUS42 KCHS 040927 RWRCHS REGIONAL WEATHER ROUNDUP NATIONAL WEATHER SERVICE CHARLESTON SC 500 AM EDT TUE AUG 04 2015 NOTE: "FAIR" INDICATES FEW OR NO CLOUDS BELOW 12,000 FEET WITH NO SIGNIFICANT WEATHER AND/OR OBSTRUCTIONS TO VISIBILITY. NOT ALL STATIONS ARE QUALITY CONTROLLED BY THE NATIONAL WEATHER SERVICE. USE DATA WITH CAUTION...ESPECIALLY DEWPOINT OBSERVATIONS. SCZ027-030-031-034>040-042>050-041000- ...SOUTHEAST SOUTH CAROLINA... CITY SKY/WX TMP DP RH WIND PRES REMARKS N CHARLESTON MOCLDY 77 75 93 NE7 29.87S WATERFRONT PRK N/A 79 78 97 VRB3 29.83F MOUNT PLEASANT HVY RAIN 79 79 100 NW5 29.86F JOHNS ISLAND CLOUDY 77 77 100 CALM 29.86S PINOPOLIS NOT AVBL MONCKS CORNER N/A 77 73 88 CALM 29.88S SUMMERVILLE CLOUDY 73 73 100 CALM 29.89S BEAUFORT MCAS CLOUDY 76 75 97 NW6 29.89R BEAUFORT ARPT CLOUDY 77 77 100 CALM 29.88S HILTON HEAD IS MOCLDY 79 77 94 SW6 29.90R WALTERBORO FOG 75 73 94 CALM 29.89S VSB 1/2 ALLENDALE FOG 73 73 100 CALM 29.90S VSB 1/4 ...SOUTHERN MIDLANDS AND PEE DEE... CITY SKY/WX TMP DP RH WIND PRES REMARKS GEORGETOWN NOT AVBL KINGSTREE NOT AVBL ORANGEBURG FOG 75 74 96 N5 29.91S VSB 1/2 BARNWELL FOG 73 73 100 CALM 29.93R VSB 1/2 AIKEN FAIR 70 68 94 CALM 29.98S MANNING CLOUDY 73 73 100 NE5 29.90S COLUMBIA MOCLDY 76 71 85 N3 29.92S SUMTER CLEAR 74 72 94 NE7 29.89F FLORENCE MOCLDY 75 73 93 E8 29.92F MYRTLE BEACH CLOUDY 75 72 88 E15 29.95S N MYRTLE BEACH TSTM 74 73 97 S18G33 29.96R VSB 1 $$ GAZ063-065-086>088-099>101-113>116-118-119-134>141-150-041000- ...SOUTHEAST GEORGIA... CITY SKY/WX TMP DP RH WIND PRES REMARKS SAVANNAH ARPT FOG 75 73 94 W6 29.91R VSB 1 HUNTER AAF FOG 75 75 100 W6 29.89R VSB 1 FORT STEWART NOT AVBL STATESBORO FOG 74 32 21 NW3 29.92S VSB 1/4 SYLVANIA FOG 75 75 100 CALM 29.92S VSB 1/4 CLAXTON NOT AVBL ...CSRA...CENTRAL AND FAR SOUTHEAST GEORGIA... CITY SKY/WX TMP DP RH WIND PRES REMARKS THOMSON CLEAR 73 73 100 CALM 29.99S AUGUSTA-BUSH CLEAR 71 70 96 CALM 29.92R AUGUSTA-DANIEL CLEAR 75 72 90 N3 29.95R SWAINSBORO FOG N/A N/A N/A CALM 29.94S VSB 3/4 VIDALIA FOG 73 72 94 E3 29.94R VSB 1/4 EASTMAN FOG 72 72 100 N3 29.95S VSB 1/2 HAZLEHURST FOG 75 75 100 CALM 29.92S VSB 3/4 ALMA FOG 73 73 100 CALM 29.92S VSB 1/2 WAYCROSS MOCLDY 78 78 100 CALM 29.93R JESUP CLOUDY 77 77 100 CALM 29.93S FOG BAXLEY FOG 77 75 94 CALM 29.93R VSB 1/4 BRUNSWICK CLOUDY 77 75 94 SW6 29.93S SAINT SIMONS MOCLDY 78 76 93 SW10 29.92R $$ SCZ027-028-034-036>038-045-046-048>050-GAZ119-141-041000- ...LAKE AND SUPPLEMENTAL COASTAL OBSERVATIONS... STATION/POSITION TIME TEMP WIND PRES WAVE SWELL AIR SEA DIR/SP/G HT/PER HT/PER/DIR (UTC) (F) (DEG/KT/KT) (MB) (FT/S) (FT/S/D) UPR LAKE MARION NOT AVBL WINYAH BAY 0800 77 110/ 6 1012.0S LAKE MURRAY 0800 75 360/ 1/ 2 1012.9S ACE BASIN NERRS NOT AVBL FORT PULASKI 0900 77 85 260/ 7/ 9 1012.6S SAPELO ISLAND 0900 79 240/ 5 1013.0S $$ ANZ835-935-AMZ111-154-330-350-352-354-370-450-454-472-041000- ...C-MAN AND BUOY OBSERVATIONS... STATION/POSITION TIME TEMP WIND PRES WAVE SWELL AIR SEA DIR/SP/G HT/PER HT/PER/DIR (UTC) (F) (DEG/KT/KT) (MB) (FT/S) (FT/S/D) BUOY 41004 0850 82 83 190/ 21/ 27 1010.6F 7/ 7 2/ 9 BUOY 41008 0850 81 83 270/ 10/ 12 1012.8R 3/ 6 3/140/ 6 FOLLY BEACH CMAN 0900 79 240/ 8/ 10 1011.1F CAPERS NEARSHORE 0808 80 200/ 17/ 23 1011.9F FRIPP NEARSHORE 0800 80 320/ 4/ 6 1011.3S STATION/POSITION TIME TEMP WIND PRES WAVE SWELL AIR SEA DIR/SP/G HT/PER HT/PER/DIR (UTC) (F) (DEG/KT/KT) (MB) (FT/S) (FT/S/D) 5E ST. MARYS GA 0821 82 N/A 3/ 5 FRYING PAN BUOY 0850 83 82 160/ 17/ 21 1014.8F 5/ 7 2/100/11 BUOY 41025 0850 82 84 190/ 17/ 21 1015.4F 5/ 5 2/110/11 CAPE LOOKOUT NC 0900 81 190/ 10/ 13 1015.0R BUOY 41002 0850 81 81 190/ 12/ 14 1018.1R 5/ 7 3/240/ 7 BUOY 41010 0820 83 84 190/ 12/ 16 1016.4R ST AUGUSTINE FL 0900 75 78 200/ 7/ 7 1015.2R $$

USA.gov is the U.S. government's official web portal to all federal, state and local government web resources and services.